{"data":{"norad_id":68477,"intl_designator":"2026-067BP","name":"UNICORN-2R","alt_names":[],"object_type":"PAYLOAD","status":"ACTIVE","operator":null,"country":"GER","launch_date":"2026-03-30","launch_site_code":"AFWTR","launch_vehicle":null,"mission":null,"orbit_class":"UNKNOWN","rcs_meters":null,"size_class":null,"mass_kg":null,"dimensions":null,"purposes":[],"wikipedia_slug":null,"has_3d_model":false,"image_url":null,"decayed_at":null,"tle_current":{"epoch":"2026-09-20T03:16:46.045056Z","epoch_age_seconds":100268,"freshness":"FRESH","line1":"1 68477U 26067BP  26263.13664404  .00005894  00000+0  57105-3 0  9996","line2":"2 68477  97.7586 219.8448 0006048 104.5499 255.6392 14.93071976 25299","mean_motion":14.93071976,"eccentricity":0.0006048,"inclination_deg":97.7586,"raan_deg":219.8448,"arg_perigee_deg":104.5499,"mean_anomaly_deg":255.6392,"bstar":0.00057105,"rev_number":2529,"period_min":96.445450932501,"perigee_km":584.15025611175,"apogee_km":592.57693523227,"semimajor_km":6966.500595672,"source":"CELESTRAK","updated_at":"2026-09-20T09:00:24.243474Z"}}}